Location: Grand Rapids
(42.9630°N, 85.6680°W)
Time: 02:41:56
(UTC-04:00)

A-11 Canister half - Pass Details

Date: 02 June 2024
Orbit: 1524 x 1684 km, 47.3° (Epoch: 21 June)

Event Time Altitude Azimuth Distance (km) Brightness Sun altitude
Rises 22:46:55 0° 277° (W) 4,680 12.3 -13.4°
Reaches altitude 10° 22:49:58 10° 280° (W) 3,707 11.8 -13.8°
Maximum altitude 22:59:19 69° 3° (N) 1,657 9.3 -14.8°
Drops below altitude 10° 23:08:57 10° 86° (E) 3,811 10.8 -15.9°
Sets 23:12:08 0° 90° (E) 4,818 11.3 -16.2°
